Location: Fours
(44.3167°N, 6.7000°E)
Time: 12:35:48
(UTC+00:00)

Cosmos 2098 - Visible Passes

Search period start: 29 May 2022 00:00
Search period end: 08 June 2022 00:00
Orbit: 387 x 1578 km, 82.9° (Epoch: 28 May)

Date Brightness Start Highest point End Pass type
(mag) Time Alt. Az. Time Alt. Az. Time Alt. Az.
30 May 6.4 02:09:19 10° NNE 02:11:52 25° ENE 02:14:29 10° SE visible
31 May 4.2 02:36:17 10° N 02:39:16 82° E 02:42:28 10° S visible
01 Jun 5.1 03:03:54 10° NNW 03:06:34 30° W 03:09:26 10° SSW visible
02 Jun 6.4 01:45:58 10° NNE 01:48:28 24° ENE 01:51:10 10° SE visible
03 Jun 4.4 02:12:51 10° N 02:15:51 75° E 02:19:09 11° SSE visible
04 Jun 5.1 02:40:21 10° NNW 02:43:09 34° W 02:45:57 12° SSW visible
05 Jun 6.5 01:22:30 10° NNE 01:25:03 23° ENE 01:27:53 10° SE visible
05 Jun 6.4 03:08:49 10° WNW 03:10:25 13° W 03:12:07 10° WSW visible
06 Jun 4.6 01:49:19 10° N 01:52:24 69° E 01:54:53 18° SSE visible
07 Jun 5.0 02:16:44 10° NNW 02:19:43 39° W 02:21:47 20° SSW visible
